| time (UTC) | temp F | wind direction | speed knots | gust knots | rain 1hr in | rain 24hr in | rain mn in | humidity % | barometer mb |
| 20260508013352 | 58 | 225 | 0.0 | 0.0 | 0.00 | 1.34 | 1.34 | 97 | 1015.7 |
| 20260508012849 | 58 | 225 | 0.0 | 0.0 | 0.00 | 1.34 | 1.34 | 97 | 1015.5 |
| 20260508012346 | 58 | 225 | 0.0 | 0.0 | 0.00 | 1.34 | 1.34 | 96 | 1015.6 |
| 20260508011844 | 58 | 225 | 0.0 | 0.0 | 0.00 | 1.34 | 1.34 | 96 | 1015.5 |
| 20260508011342 | 58 | 225 | 0.0 | 0.0 | 0.00 | 1.34 | 1.34 | 96 | 1015.6 |
| 20260508010839 | 59 | 225 | 0.0 | 0.0 | 0.00 | 1.34 | 1.34 | 95 | 1015.5 |
| 20260508010336 | 59 | 225 | 0.0 | 0.0 | 0.00 | 1.34 | 1.34 | 95 | 1015.6 |
| 20260508005833 | 59 | 225 | 0.0 | 0.0 | 0.00 | 1.34 | 1.34 | 95 | 1015.4 |
| 20260508005330 | 60 | 225 | 0.0 | 0.0 | 0.00 | 1.34 | 1.34 | 94 | 1015.5 |
| 20260508004826 | 60 | 225 | 0.0 | 0.0 | 0.00 | 1.34 | 1.34 | 94 | 1015.4 |
| 20260508004322 | 60 | 225 | 0.0 | 0.0 | 0.00 | 1.34 | 1.34 | 94 | 1015.2 |
| 20260508003819 | 61 | 225 | 0.0 | 0.0 | 0.00 | 1.34 | 1.34 | 93 | 1015.3 |
| 20260508003316 | 61 | 225 | 0.0 | 0.0 | 0.00 | 1.34 | 1.34 | 93 | 1015.4 |
| 20260508002813 | 61 | 225 | 0.0 | 0.0 | 0.00 | 1.34 | 1.34 | 92 | 1015.2 |
| 20260508002310 | 62 | 225 | 0.0 | 0.0 | 0.00 | 1.34 | 1.34 | 92 | 1015.4 |
| 20260508001806 | 62 | 225 | 0.0 | 0.0 | 0.00 | 1.34 | 1.34 | 91 | 1015.3 |
| 20260508001302 | 63 | 225 | 0.0 | 0.0 | 0.00 | 1.34 | 1.34 | 89 | 1015.3 |
| 20260508000758 | 63 | 225 | 0.0 | 0.0 | 0.00 | 1.34 | 1.34 | 87 | 1015.1 |
| 20260508000257 | 64 | 225 | 0.0 | 0.0 | 0.00 | 1.34 | 1.34 | 86 | 1015.1 |
| 20260507235751 | 64 | 225 | 0.0 | 0.0 | 0.00 | 1.34 | 1.34 | 84 | 1014.9 |
| 20260507235249 | 64 | 225 | 0.0 | 0.0 | 0.00 | 1.34 | 1.34 | 83 | 1014.8 |
| 20260507234746 | 64 | 225 | 0.0 | 0.0 | 0.00 | 1.34 | 1.34 | 82 | 1014.8 |
| 20260507234242 | 65 | 225 | 0.0 | 0.0 | 0.00 | 1.34 | 1.34 | 81 | 1014.6 |
| 20260507233739 | 65 | 225 | 0.0 | 0.0 | 0.00 | 1.34 | 1.34 | 80 | 1014.6 |
| 20260507233237 | 65 | 225 | 0.0 | 0.0 | 0.00 | 1.34 | 1.34 | 80 | 1014.8 |
| 20260507232734 | 65 | 225 | 0.0 | 0.0 | 0.00 | 1.34 | 1.34 | 77 | 1014.9 |
| 20260507232231 | 66 | 206 | 0.0 | 0.0 | 0.00 | 1.34 | 1.34 | 77 | 1014.7 |
| 20260507231727 | 66 | 225 | 0.0 | 0.0 | 0.00 | 1.34 | 1.34 | 76 | 1014.6 |
| 20260507231225 | 66 | 225 | 0.0 | 0.9 | 0.00 | 1.34 | 1.34 | 75 | 1014.7 |
| 20260507230721 | 66 | 271 | 0.9 | 1.7 | 0.00 | 1.34 | 1.34 | 74 | 1014.7 |
| 20260507230219 | 66 | 252 | 0.9 | 1.7 | 0.00 | 1.34 | 1.34 | 75 | 1014.6 |
| 20260507225718 | 66 | 239 | 0.0 | 0.9 | 0.00 | 1.34 | 1.34 | 75 | 1014.6 |
| 20260507225215 | 66 | 251 | 0.0 | 1.7 | 0.00 | 1.34 | 1.34 | 75 | 1014.5 |
| 20260507224710 | 66 | 206 | 0.9 | 1.7 | 0.00 | 1.34 | 1.34 | 74 | 1014.7 |
| 20260507224207 | 66 | 266 | 1.7 | 2.6 | 0.00 | 1.34 | 1.34 | 74 | 1014.7 |
| 20260507223703 | 66 | 235 | 0.9 | 3.5 | 0.00 | 1.34 | 1.34 | 73 | 1014.4 |
| 20260507223201 | 67 | 197 | 0.9 | 3.5 | 0.00 | 1.34 | 1.34 | 72 | 1014.5 |
| 20260507222657 | 67 | 264 | 0.0 | 2.6 | 0.00 | 1.34 | 1.34 | 74 | 1014.5 |
| 20260507222153 | 67 | 236 | 1.7 | 2.6 | 0.00 | 1.34 | 1.34 | 73 | 1014.6 |
| 20260507221650 | 67 | 229 | 0.9 | 0.9 | 0.00 | 1.34 | 1.34 | 71 | 1014.6 |
| 20260507221146 | 66 | 227 | 2.6 | 3.5 | 0.00 | 1.34 | 1.34 | 71 | 1014.3 |
| 20260507220643 | 67 | 227 | 3.5 | 5.2 | 0.00 | 1.34 | 1.34 | 70 | 1014.6 |
| 20260507220142 | 67 | 155 | 1.7 | 5.2 | 0.00 | 1.34 | 1.34 | 71 | 1014.8 |
| 20260507215637 | 67 | 246 | 1.7 | 6.1 | 0.00 | 1.34 | 1.34 | 70 | 1014.8 |
| 20260507215135 | 67 | 257 | 0.9 | 3.5 | 0.00 | 1.34 | 1.34 | 70 | 1014.7 |
| 20260507214632 | 68 | 215 | 1.7 | 6.1 | 0.00 | 1.34 | 1.34 | 69 | 1014.4 |
| 20260507214128 | 67 | 254 | 3.5 | 6.1 | 0.00 | 1.34 | 1.34 | 70 | 1014.6 |
| 20260507213625 | 68 | 250 | 2.6 | 5.2 | 0.00 | 1.34 | 1.34 | 69 | 1014.7 |
| 20260507213122 | 68 | 236 | 3.5 | 7.0 | 0.00 | 1.34 | 1.34 | 69 | 1014.4 |
| 20260507212618 | 68 | 262 | 5.2 | 8.7 | 0.00 | 1.34 | 1.34 | 68 | 1014.3 |
| 20260507212115 | 68 | 115 | 0.9 | 2.6 | 0.00 | 1.34 | 1.34 | 72 | 1014.3 |
| 20260507211612 | 68 | 234 | 2.6 | 2.6 | 0.00 | 1.34 | 1.34 | 69 | 1014.2 |
| 20260507211107 | 67 | 246 | 0.0 | 0.9 | 0.00 | 1.34 | 1.34 | 71 | 1014.1 |
| 20260507210605 | 67 | 273 | 1.7 | 5.2 | 0.00 | 1.34 | 1.34 | 71 | 1014.0 |
| 20260507205558 | 68 | 255 | 3.5 | 7.0 | 0.00 | 1.34 | 1.34 | 69 | 1014.2 |
| 20260507205054 | 69 | 279 | 1.7 | 3.5 | 0.00 | 1.34 | 1.34 | 69 | 1014.1 |
| 20260507204551 | 69 | 336 | 0.9 | 5.2 | 0.00 | 1.34 | 1.34 | 72 | 1014.1 |
| 20260507204048 | 68 | 122 | 0.9 | 2.6 | 0.00 | 1.34 | 1.34 | 71 | 1014.0 |
| 20260507203546 | 67 | 340 | 0.0 | 1.7 | 0.00 | 1.34 | 1.34 | 75 | 1013.8 |
| 20260507203043 | 67 | 233 | 0.9 | 1.7 | 0.00 | 1.34 | 1.34 | 72 | 1013.8 |
| 20260507202539 | 67 | 222 | 0.0 | 1.7 | 0.00 | 1.34 | 1.34 | 74 | 1013.7 |
| 20260507202035 | 67 | 283 | 0.0 | 2.6 | 0.00 | 1.34 | 1.34 | 73 | 1013.8 |
| 20260507201531 | 67 | 194 | 1.7 | 1.7 | 0.00 | 1.34 | 1.34 | 73 | 1014.1 |
| 20260507201027 | 68 | 198 | 0.9 | 2.6 | 0.00 | 1.34 | 1.34 | 70 | 1014.1 |
| 20260507200523 | 69 | 219 | 1.7 | 5.2 | 0.00 | 1.34 | 1.34 | 68 | 1013.9 |
| 20260507200019 | 69 | 250 | 2.6 | 5.2 | 0.00 | 1.34 | 1.34 | 69 | 1013.9 |
| 20260507195517 | 68 | 186 | 1.7 | 5.2 | 0.00 | 1.34 | 1.34 | 74 | 1014.0 |
| 20260507195014 | 68 | 223 | 5.2 | 7.0 | 0.00 | 1.34 | 1.34 | 70 | 1014.1 |
| 20260507194510 | 67 | 235 | 3.5 | 3.5 | 0.00 | 1.34 | 1.34 | 72 | 1014.0 |
| 20260507194007 | 67 | 249 | 0.9 | 5.2 | 0.00 | 1.34 | 1.34 | 74 | 1014.2 |
| 20260507193504 | 67 | 264 | 0.9 | 2.6 | 0.00 | 1.34 | 1.34 | 74 | 1014.1 |
| 20260507193001 | 68 | 191 | 3.5 | 7.0 | 0.00 | 1.34 | 1.34 | 74 | 1014.3 |
| 20260507192456 | 67 | 236 | 3.5 | 7.8 | 0.00 | 1.34 | 1.34 | 74 | 1014.3 |
| 20260507191954 | 67 | 250 | 1.7 | 3.5 | 0.00 | 1.34 | 1.34 | 74 | 1014.4 |
| 20260507191449 | 66 | 296 | 2.6 | 5.2 | 0.00 | 1.34 | 1.34 | 77 | 1014.3 |
| 20260507190946 | 65 | 201 | 3.5 | 5.2 | 0.00 | 1.34 | 1.34 | 78 | 1014.6 |
| 20260507190444 | 67 | 204 | 3.5 | 5.2 | 0.00 | 1.34 | 1.34 | 76 | 1014.3 |
| 20260507185943 | 67 | 200 | 0.9 | 3.5 | 0.00 | 1.34 | 1.34 | 78 | 1014.3 |
| 20260507185439 | 67 | 208 | 1.7 | 1.7 | 0.00 | 1.34 | 1.34 | 77 | 1014.2 |
| 20260507184936 | 67 | 255 | 0.9 | 3.5 | 0.00 | 1.34 | 1.34 | 78 | 1014.5 |
| 20260507184434 | 66 | 266 | 0.9 | 7.8 | 0.00 | 1.34 | 1.34 | 77 | 1014.5 |
| 20260507183932 | 67 | 261 | 1.7 | 2.6 | 0.00 | 1.34 | 1.34 | 76 | 1014.6 |
| 20260507183428 | 67 | 250 | 0.9 | 1.7 | 0.00 | 1.34 | 1.34 | 79 | 1014.5 |
| 20260507182926 | 67 | 179 | 1.7 | 5.2 | 0.00 | 1.34 | 1.34 | 79 | 1014.4 |
| 20260507182421 | 66 | 279 | 0.9 | 0.9 | 0.00 | 1.34 | 1.34 | 79 | 1014.4 |
| 20260507181918 | 65 | 262 | 0.0 | 7.8 | 0.00 | 1.34 | 1.34 | 81 | 1014.5 |
| 20260507181414 | 65 | 185 | 1.7 | 2.6 | 0.00 | 1.34 | 1.34 | 80 | 1014.7 |
| 20260507180911 | 64 | 211 | 3.5 | 6.1 | 0.00 | 1.34 | 1.34 | 82 | 1014.8 |
| 20260507180407 | 64 | 247 | 2.6 | 3.5 | 0.00 | 1.34 | 1.34 | 81 | 1014.7 |
| 20260507175903 | 65 | 190 | 3.5 | 6.1 | 0.00 | 1.34 | 1.34 | 82 | 1014.9 |
| 20260507175400 | 64 | 122 | 0.9 | 5.2 | 0.00 | 1.34 | 1.34 | 85 | 1014.8 |
| 20260507174858 | 63 | 248 | 0.0 | 3.5 | 0.00 | 1.34 | 1.34 | 84 | 1014.8 |
| 20260507174355 | 62 | 249 | 0.9 | 3.5 | 0.00 | 1.34 | 1.34 | 86 | 1014.7 |
| 20260507173853 | 62 | 5 | 2.6 | 7.0 | 0.00 | 1.34 | 1.34 | 86 | 1015.0 |
| 20260507173349 | 62 | 207 | 1.7 | 5.2 | 0.00 | 1.34 | 1.34 | 85 | 1014.8 |
| 20260507172846 | 62 | 187 | 2.6 | 3.5 | 0.00 | 1.34 | 1.34 | 87 | 1014.9 |
| 20260507172342 | 62 | 220 | 0.0 | 3.5 | 0.00 | 1.34 | 1.34 | 87 | 1014.7 |
| 20260507171838 | 61 | 353 | 1.7 | 2.6 | 0.00 | 1.34 | 1.34 | 88 | 1014.6 |
| 20260507171335 | 60 | 350 | 0.0 | 1.7 | 0.00 | 1.34 | 1.34 | 90 | 1014.9 |
| 20260507170832 | 60 | 271 | 1.7 | 2.6 | 0.00 | 1.34 | 1.34 | 90 | 1014.9 |
| 20260507170329 | 59 | 261 | 2.6 | 5.2 | 0.00 | 1.34 | 1.34 | 91 | 1014.9 |
| 20260507165825 | 59 | 263 | 0.9 | 3.5 | 0.00 | 1.34 | 1.34 | 92 | 1015.2 |
| 20260507165321 | 58 | 208 | 1.7 | 6.1 | 0.00 | 1.34 | 1.34 | 94 | 1015.1 |
| 20260507164817 | 58 | 335 | 3.5 | 7.0 | 0.00 | 1.34 | 1.34 | 94 | 1015.1 |
| 20260507164314 | 59 | 211 | 3.5 | 7.0 | 0.00 | 1.34 | 1.34 | 94 | 1015.1 |
| 20260507163811 | 59 | 252 | 1.7 | 3.5 | 0.00 | 1.34 | 1.34 | 94 | 1015.1 |
| 20260507163309 | 59 | 235 | 3.5 | 6.1 | 0.00 | 1.34 | 1.34 | 94 | 1015.1 |
| 20260507162805 | 59 | 205 | 1.7 | 3.5 | 0.00 | 1.34 | 1.34 | 95 | 1014.9 |
| 20260507162301 | 60 | 194 | 1.7 | 5.2 | 0.00 | 1.34 | 1.34 | 94 | 1014.7 |
| 20260507161758 | 60 | 238 | 0.9 | 7.0 | 0.00 | 1.34 | 1.34 | 95 | 1014.7 |
| 20260507161254 | 60 | 251 | 4.3 | 6.1 | 0.00 | 1.34 | 1.34 | 94 | 1014.7 |
| 20260507160750 | 60 | 197 | 1.7 | 5.2 | 0.00 | 1.34 | 1.34 | 95 | 1014.6 |
| 20260507160247 | 59 | 226 | 3.5 | 6.1 | 0.00 | 1.34 | 1.34 | 95 | 1014.2 |
| 20260507155743 | 60 | 233 | 2.6 | 7.0 | 0.00 | 1.34 | 1.34 | 95 | 1014.4 |
| 20260507155239 | 59 | 259 | 1.7 | 5.2 | 0.00 | 1.34 | 1.34 | 96 | 1014.2 |
| 20260507154736 | 59 | 232 | 3.5 | 6.1 | 0.00 | 1.34 | 1.34 | 97 | 1014.3 |
| 20260507154234 | 59 | 317 | 2.6 | 6.1 | 0.00 | 1.34 | 1.34 | 97 | 1014.2 |
| 20260507153730 | 59 | 173 | 1.7 | 2.6 | 0.00 | 1.34 | 1.34 | 99 | 1014.3 |
| 20260507153226 | 59 | 231 | 0.9 | 2.6 | 0.00 | 1.34 | 1.34 | 99 | 1014.2 |
| 20260507152723 | 59 | 183 | 0.9 | 1.7 | 0.00 | 1.34 | 1.34 | 99 | 1014.0 |
| 20260507152219 | 59 | 224 | 1.7 | 2.6 | 0.00 | 1.34 | 1.34 | 99 | 1014.1 |
| 20260507151715 | 59 | 310 | 0.9 | 3.5 | 0.00 | 1.34 | 1.34 | 99 | 1014.0 |
| 20260507151212 | 59 | 130 | 0.0 | 1.7 | 0.00 | 1.34 | 1.34 | 99 | 1014.1 |
| 20260507150709 | 58 | 246 | 0.0 | 2.6 | 0.00 | 1.34 | 1.34 | 99 | 1013.9 |
| 20260507150206 | 58 | 234 | 1.7 | 8.7 | 0.00 | 1.34 | 1.34 | 99 | 1014.1 |
| 20260507145701 | 58 | 289 | 1.7 | 2.6 | 0.00 | 1.34 | 1.34 | 99 | 1014.0 |
| 20260507145158 | 58 | 249 | 0.9 | 2.6 | 0.00 | 1.34 | 1.34 | 99 | 1014.0 |
| 20260507144655 | 58 | 245 | 1.7 | 5.2 | 0.00 | 1.34 | 1.34 | 99 | 1013.9 |
| 20260507144153 | 58 | 218 | 0.9 | 7.0 | 0.00 | 1.34 | 1.34 | 99 | 1013.8 |
| 20260507143650 | 58 | 298 | 0.0 | 3.5 | 0.00 | 1.34 | 1.34 | 99 | 1013.8 |
| 20260507143147 | 58 | 221 | 1.7 | 2.6 | 0.00 | 1.34 | 1.34 | 99 | 1013.9 |
| 20260507142642 | 59 | 170 | 6.1 | 7.8 | 0.00 | 1.34 | 1.34 | 99 | 1013.8 |
| 20260507142139 | 59 | 265 | 2.6 | 3.5 | 0.00 | 1.34 | 1.34 | 99 | 1014.2 |
| 20260507141636 | 58 | 213 | 0.9 | 6.1 | 0.00 | 1.34 | 1.34 | 99 | 1014.3 |
| 20260507141132 | 58 | 217 | 0.9 | 2.6 | 0.00 | 1.34 | 1.34 | 99 | 1014.1 |
| 20260507140629 | 58 | 265 | 4.3 | 6.1 | 0.00 | 1.34 | 1.34 | 99 | 1014.2 |
| 20260507140126 | 58 | 266 | 2.6 | 3.5 | 0.00 | 1.34 | 1.34 | 99 | 1014.1 |
| 20260507135623 | 58 | 298 | 0.9 | 5.2 | 0.00 | 1.34 | 1.34 | 99 | 1014.0 |
| 20260507135121 | 58 | 346 | 0.0 | 5.2 | 0.00 | 1.34 | 1.34 | 99 | 1013.8 |
| 20260507134617 | 58 | 202 | 0.9 | 6.1 | 0.00 | 1.34 | 1.34 | 99 | 1013.9 |
| 20260507134113 | 59 | 233 | 3.5 | 5.2 | 0.05 | 1.34 | 1.34 | 99 | 1014.1 |
| 20260507133609 | 59 | 229 | 2.6 | 5.2 | 0.05 | 1.34 | 1.34 | 99 | 1014.0 |
| 20260507133107 | 59 | 171 | 4.3 | 5.2 | 0.00 | 1.33 | 1.33 | 99 | 1013.7 |
| 20260507132603 | 59 | 217 | 1.7 | 3.5 | 0.00 | 1.33 | 1.33 | 99 | 1013.7 |
| 20260507132100 | 60 | 197 | 0.9 | 5.2 | 0.00 | 1.33 | 1.33 | 99 | 1013.6 |
| 20260507131557 | 60 | 225 | 2.6 | 6.1 | 0.00 | 1.33 | 1.33 | 99 | 1013.5 |
| 20260507131054 | 60 | 23 | 0.9 | 6.1 | 0.00 | 1.33 | 1.33 | 99 | 1013.4 |
| 20260507130551 | 60 | 242 | 1.7 | 3.5 | 0.00 | 1.33 | 1.33 | 99 | 1013.4 |
| 20260507130049 | 60 | 237 | 1.7 | 7.0 | 0.00 | 1.33 | 1.33 | 99 | 1013.1 |
| 20260507125547 | 61 | 230 | 0.0 | 3.5 | 0.00 | 1.33 | 1.33 | 99 | 1013.1 |
| 20260507125039 | 60 | 264 | 1.7 | 2.6 | 0.00 | 1.33 | 1.33 | 99 | 1012.9 |
| 20260507124535 | 61 | 250 | 2.6 | 5.2 | 0.00 | 1.33 | 1.33 | 99 | 1012.9 |
| 20260507124033 | 61 | 220 | 1.7 | 3.5 | 0.00 | 1.33 | 1.33 | 99 | 1012.8 |
| 20260507123531 | 61 | 220 | 0.9 | 2.6 | 0.00 | 1.33 | 1.33 | 99 | 1012.7 |
| 20260507123027 | 62 | 242 | 1.7 | 5.2 | 0.00 | 1.33 | 1.33 | 99 | 1012.3 |
| 20260507122522 | 62 | 241 | 0.0 | 2.6 | 0.00 | 1.33 | 1.33 | 99 | 1012.0 |
| 20260507122019 | 62 | 244 | 0.0 | 2.6 | 0.00 | 1.33 | 1.33 | 99 | 1012.3 |
| 20260507121514 | 62 | 221 | 0.9 | 0.9 | 0.00 | 1.33 | 1.33 | 99 | 1012.3 |
| 20260507121010 | 62 | 301 | 0.0 | 0.0 | 0.12 | 1.33 | 1.33 | 99 | 1012.6 |
| 20260507120507 | 62 | 233 | 1.7 | 3.5 | 0.24 | 1.33 | 1.33 | 99 | 1012.8 |
| 20260507120005 | 62 | 248 | 0.0 | 2.6 | 0.24 | 1.30 | 1.30 | 99 | 1011.8 |
| 20260507115459 | 62 | 243 | 0.9 | 1.7 | 0.31 | 1.28 | 1.28 | 99 | 1012.4 |
| 20260507114955 | 62 | 219 | 0.0 | 0.0 | 0.31 | 1.26 | 1.26 | 99 | 1012.9 |
| 20260507114451 | 62 | 242 | 0.0 | 0.0 | 0.17 | 1.23 | 1.23 | 99 | 1013.0 |
| 20260507113944 | 62 | 239 | 0.9 | 1.7 | 0.05 | 1.21 | 1.21 | 99 | 1013.1 |
| 20260507113441 | 62 | 260 | 1.7 | 2.6 | 0.07 | 1.20 | 1.20 | 99 | 1012.8 |
| 20260507112938 | 62 | 235 | 0.0 | 0.9 | 0.12 | 1.20 | 1.20 | 99 | 1012.7 |
| 20260507112435 | 62 | 236 | 0.0 | 2.6 | 0.17 | 1.19 | 1.19 | 99 | 1012.4 |
| 20260507111932 | 62 | 259 | 1.7 | 2.6 | 0.42 | 1.17 | 1.17 | 99 | 1012.1 |
| 20260507111430 | 62 | 346 | 0.0 | 2.6 | 0.90 | 1.15 | 1.15 | 99 | 1012.0 |
| 20260507110926 | 62 | 218 | 0.0 | 1.7 | 0.42 | 1.06 | 1.06 | 99 | 1012.4 |
| 20260507110422 | 62 | 242 | 1.7 | 6.1 | 0.12 | 1.00 | 1.00 | 99 | 1013.0 |
| 20260507105919 | 62 | 257 | 1.7 | 3.5 | 0.05 | 0.99 | 0.99 | 99 | 1012.5 |
| 20260507105416 | 62 | 299 | 0.0 | 0.0 | 0.00 | 0.98 | 0.98 | 99 | 1012.0 |
| 20260507104912 | 62 | 252 | 0.0 | 1.7 | 0.00 | 0.98 | 0.98 | 99 | 1011.5 |
| 20260507104409 | 62 | 244 | 0.9 | 1.7 | 0.00 | 0.98 | 0.98 | 99 | 1011.3 |
| 20260507103905 | 62 | 351 | 0.0 | 0.9 | 0.00 | 0.98 | 0.98 | 99 | 1011.2 |
| 20260507103402 | 62 | 236 | 0.0 | 0.0 | 0.00 | 0.98 | 0.98 | 99 | 1011.4 |
| 20260507102858 | 62 | 193 | 0.0 | 0.9 | 0.00 | 0.98 | 0.98 | 99 | 1011.5 |
| 20260507102354 | 62 | 193 | 0.0 | 0.9 | 0.00 | 0.98 | 0.98 | 99 | 1011.5 |
| 20260507101850 | 62 | 283 | 0.0 | 0.9 | 0.00 | 0.98 | 0.98 | 99 | 1011.6 |
| 20260507101345 | 62 | 210 | 0.9 | 1.7 | 0.00 | 0.98 | 0.98 | 99 | 1011.8 |
| 20260507100842 | 62 | 237 | 0.0 | 1.7 | 0.07 | 0.98 | 0.98 | 99 | 1012.0 |
| 20260507100341 | 62 | 340 | 0.0 | 0.9 | 0.12 | 0.98 | 0.98 | 99 | 1011.5 |
| 20260507095838 | 62 | 340 | 0.9 | 0.9 | 0.66 | 0.97 | 0.97 | 99 | 1011.8 |
| 20260507095335 | 63 | 319 | 0.9 | 1.7 | 1.94 | 0.96 | 0.96 | 99 | 1012.2 |
| 20260507094832 | 63 | 212 | 1.7 | 3.5 | 1.56 | 0.84 | 0.84 | 99 | 1012.7 |
| 20260507094328 | 63 | 232 | 3.5 | 5.2 | 0.28 | 0.62 | 0.62 | 99 | 1013.5 |
| 20260507093825 | 63 | 232 | 3.5 | 8.7 | 0.00 | 0.57 | 0.57 | 99 | 1012.8 |
| 20260507093324 | 63 | 241 | 1.7 | 3.5 | 0.07 | 0.57 | 0.57 | 99 | 1012.0 |
| 20260507092821 | 63 | 349 | 0.0 | 0.9 | 0.19 | 0.57 | 0.57 | 99 | 1011.0 |
| 20260507092318 | 63 | 345 | 0.0 | 0.0 | 0.19 | 0.55 | 0.55 | 99 | 1011.0 |
| 20260507091814 | 63 | 341 | 0.0 | 0.9 | 0.24 | 0.54 | 0.54 | 99 | 1011.3 |
| 20260507091311 | 63 | 223 | 0.0 | 0.0 | 0.19 | 0.52 | 0.52 | 99 | 1011.6 |
| 20260507090805 | 63 | 228 | 0.0 | 0.9 | 0.00 | 0.49 | 0.49 | 99 | 1012.0 |
| 20260507090302 | 63 | 245 | 0.0 | 0.9 | 0.00 | 0.49 | 0.49 | 99 | 1011.8 |
| 20260507085759 | 63 | 245 | 0.0 | 0.0 | 0.05 | 0.49 | 0.49 | 99 | 1011.4 |
| 20260507085256 | 63 | 246 | 0.0 | 0.0 | 0.05 | 0.49 | 0.49 | 99 | 1012.0 |
| 20260507084754 | 63 | 252 | 0.0 | 0.0 | 0.00 | 0.48 | 0.48 | 99 | 1011.9 |
| 20260507084250 | 63 | 252 | 0.9 | 0.9 | 0.00 | 0.48 | 0.48 | 99 | 1011.9 |
| 20260507083748 | 63 | 325 | 0.0 | 0.0 | 0.00 | 0.48 | 0.48 | 99 | 1011.6 |
| 20260507083244 | 63 | 325 | 0.0 | 0.0 | 0.07 | 0.48 | 0.48 | 99 | 1011.4 |
| 20260507082740 | 63 | 305 | 0.0 | 0.0 | 0.07 | 0.48 | 0.48 | 99 | 1011.4 |
| 20260507082236 | 63 | 304 | 0.0 | 0.0 | 0.00 | 0.47 | 0.47 | 99 | 1011.8 |
| 20260507081733 | 63 | 243 | 0.0 | 0.9 | 0.00 | 0.47 | 0.47 | 99 | 1012.1 |
| 20260507081229 | 63 | 247 | 0.0 | 0.9 | 0.05 | 0.47 | 0.47 | 99 | 1011.9 |
| 20260507080726 | 63 | 237 | 0.0 | 0.0 | 0.05 | 0.47 | 0.47 | 99 | 1012.2 |
| 20260507080222 | 63 | 6 | 0.9 | 0.9 | 0.07 | 0.46 | 0.46 | 99 | 1011.8 |
| 20260507075717 | 63 | 6 | 0.0 | 0.0 | 0.07 | 0.46 | 0.46 | 99 | 1011.6 |
| 20260507075214 | 63 | 6 | 0.0 | 0.0 | 0.00 | 0.45 | 0.45 | 99 | 1011.7 |
| 20260507074710 | 63 | 6 | 0.0 | 0.0 | 0.00 | 0.45 | 0.45 | 99 | 1012.0 |
| 20260507074209 | 62 | 6 | 0.0 | 0.0 | 0.00 | 0.45 | 0.45 | 99 | 1011.8 |
| 20260507073705 | 63 | 6 | 0.0 | 0.0 | 0.05 | 0.45 | 0.45 | 99 | 1012.0 |
| 20260507073201 | 63 | 6 | 0.0 | 0.0 | 0.12 | 0.45 | 0.45 | 99 | 1011.9 |
| 20260507072659 | 63 | 6 | 0.0 | 0.0 | 0.12 | 0.44 | 0.44 | 99 | 1012.0 |
| 20260507072156 | 63 | 4 | 0.0 | 0.0 | 0.05 | 0.43 | 0.43 | 99 | 1012.2 |
| 20260507071654 | 63 | 2 | 0.0 | 0.9 | 0.07 | 0.42 | 0.42 | 99 | 1012.2 |
| 20260507071150 | 63 | 2 | 0.0 | 0.0 | 0.14 | 0.42 | 0.42 | 99 | 1012.0 |
| 20260507070647 | 63 | 0 | 0.0 | 0.0 | 0.12 | 0.41 | 0.41 | 99 | 1012.1 |
| 20260507070144 | 63 | 0 | 0.0 | 0.0 | 0.24 | 0.40 | 0.40 | 99 | 1012.4 |
| 20260507065640 | 63 | 4 | 0.0 | 0.9 | 0.66 | 0.39 | 0.39 | 99 | 1012.1 |
| 20260507065137 | 63 | 9 | 0.9 | 0.9 | 1.09 | 0.35 | 0.35 | 99 | 1011.6 |
| 20260507064635 | 63 | 342 | 0.0 | 0.9 | 0.78 | 0.28 | 0.28 | 99 | 1013.2 |
| 20260507064133 | 63 | 349 | 0.0 | 0.0 | 0.19 | 0.17 | 0.17 | 99 | 1012.9 |
| 20260507063630 | 63 | 348 | 0.0 | 0.0 | 0.19 | 0.15 | 0.15 | 99 | 1013.1 |
| 20260507063127 | 63 | 348 | 0.0 | 0.9 | 0.28 | 0.14 | 0.14 | 99 | 1012.5 |
| 20260507062624 | 63 | 341 | 0.0 | 0.0 | 0.24 | 0.12 | 0.12 | 99 | 1012.9 |
| 20260507062122 | 63 | 227 | 0.0 | 0.0 | 0.12 | 0.10 | 0.10 | 99 | 1013.5 |
| 20260507061619 | 63 | 232 | 0.9 | 1.7 | 0.05 | 0.08 | 0.08 | 99 | 1013.4 |
| 20260507061117 | 63 | 212 | 0.0 | 0.9 | 0.17 | 0.08 | 0.08 | 99 | 1013.0 |
| 20260507060615 | 63 | 211 | 0.0 | 0.0 | 0.19 | 0.07 | 0.07 | 99 | 1013.6 |
| 20260507060111 | 63 | 211 | 0.9 | 1.7 | 0.12 | 0.05 | 0.05 | 99 | 1013.7 |
| 20260507055606 | 63 | 211 | 0.0 | 0.0 | 0.12 | 0.04 | 0.04 | 99 | 1013.4 |
| 20260507055103 | 63 | 211 | 0.0 | 0.0 | 0.07 | 0.03 | 0.03 | 99 | 1013.1 |
| 20260507054559 | 63 | 211 | 0.0 | 0.9 | 0.00 | 0.02 | 0.02 | 99 | 1013.4 |
| 20260507054056 | 63 | 211 | 0.0 | 0.0 | 0.00 | 0.02 | 0.02 | 99 | 1013.4 |
| 20260507053554 | 63 | 211 | 0.9 | 1.7 | 0.00 | 0.02 | 0.02 | 99 | 1013.5 |
| 20260507053052 | 63 | 211 | 0.0 | 0.9 | 0.00 | 0.02 | 0.02 | 99 | 1014.2 |
| 20260507052550 | 63 | 211 | 0.0 | 0.0 | 0.00 | 0.02 | 0.02 | 99 | 1013.9 |
| 20260507052046 | 63 | 344 | 0.9 | 0.9 | 0.00 | 0.02 | 0.02 | 99 | 1014.2 |
| 20260507051544 | 63 | 344 | 0.0 | 0.0 | 0.00 | 0.02 | 0.02 | 99 | 1014.1 |
| 20260507051041 | 63 | 344 | 0.0 | 0.0 | 0.00 | 0.02 | 0.02 | 99 | 1014.0 |
| 20260507050537 | 63 | 344 | 0.9 | 0.9 | 0.00 | 0.02 | 0.02 | 99 | 1013.5 |
| 20260507050034 | 63 | 246 | 0.0 | 0.0 | 0.07 | 0.02 | 0.02 | 99 | 1014.5 |
| 20260507045530 | 63 | 226 | 0.9 | 1.7 | 0.07 | 0.02 | 0.02 | 99 | 1014.1 |
| 20260507045027 | 63 | 240 | 0.0 | 0.0 | 0.00 | 0.01 | 0.01 | 99 | 1014.2 |
| 20260507044524 | 63 | 240 | 0.0 | 0.0 | 0.00 | 0.01 | 0.01 | 99 | 1014.2 |
| 20260507044021 | 63 | 240 | 0.0 | 0.0 | 0.00 | 0.01 | 0.01 | 99 | 1014.1 |
| 20260507043517 | 63 | 240 | 0.0 | 0.0 | 0.00 | 0.01 | 0.01 | 99 | 1014.1 |
| 20260507043015 | 63 | 240 | 0.0 | 0.0 | 0.00 | 0.01 | 0.01 | 99 | 1014.0 |
| 20260507042510 | 63 | 240 | 0.0 | 0.9 | 0.00 | 0.01 | 0.01 | 99 | 1013.9 |
| 20260507042006 | 63 | 240 | 0.0 | 0.9 | 0.00 | 0.01 | 0.01 | 99 | 1013.5 |
| 20260507041503 | 63 | 256 | 0.0 | 1.7 | 0.00 | 0.01 | 0.01 | 99 | 1013.8 |
| 20260507041000 | 63 | 243 | 0.9 | 1.7 | 0.05 | 0.01 | 0.01 | 99 | 1014.0 |
| 20260507040456 | 63 | 243 | 0.0 | 0.0 | 0.00 | 0.00 | 0.00 | 99 | 1014.1 |
| 20260507035951 | 63 | 243 | 0.0 | 0.0 | 0.00 | 1.33 | 1.33 | 99 | 1014.1 |
| 20260507035448 | 63 | 243 | 0.0 | 0.0 | 0.00 | 1.33 | 1.33 | 99 | 1014.1 |
| 20260507034945 | 63 | 243 | 0.0 | 0.0 | 0.00 | 1.33 | 1.33 | 99 | 1014.1 |
| 20260507034442 | 63 | 243 | 0.0 | 0.0 | 0.00 | 1.33 | 1.33 | 99 | 1013.9 |
| 20260507033940 | 63 | 243 | 0.0 | 0.0 | 0.00 | 1.33 | 1.33 | 99 | 1013.8 |
| 20260507033438 | 63 | 243 | 0.0 | 0.0 | 0.00 | 1.33 | 1.33 | 99 | 1013.5 |
| 20260507032934 | 63 | 243 | 0.0 | 0.0 | 0.00 | 1.33 | 1.33 | 99 | 1013.7 |
| 20260507032432 | 63 | 243 | 0.0 | 0.0 | 0.00 | 1.33 | 1.33 | 99 | 1013.8 |
| 20260507031927 | 63 | 243 | 0.0 | 0.0 | 0.00 | 1.33 | 1.33 | 99 | 1013.7 |
| 20260507031426 | 63 | 243 | 0.0 | 0.0 | 0.00 | 1.33 | 1.33 | 99 | 1013.8 |
| 20260507030921 | 63 | 243 | 0.0 | 0.0 | 0.00 | 1.33 | 1.33 | 99 | 1013.9 |
| 20260507030418 | 63 | 243 | 0.0 | 0.0 | 0.00 | 1.33 | 1.33 | 99 | 1014.0 |
| 20260507025915 | 63 | 251 | 0.0 | 0.9 | 0.00 | 1.33 | 1.33 | 99 | 1013.9 |
| 20260507025413 | 63 | 251 | 0.0 | 0.0 | 0.00 | 1.33 | 1.33 | 99 | 1013.8 |
| 20260507024910 | 63 | 251 | 0.0 | 0.9 | 0.00 | 1.33 | 1.33 | 99 | 1014.3 |
| 20260507024407 | 63 | 251 | 0.0 | 0.0 | 0.00 | 1.33 | 1.33 | 99 | 1014.3 |
| 20260507023903 | 63 | 258 | 0.0 | 0.0 | 0.00 | 1.33 | 1.33 | 99 | 1014.3 |
| 20260507023400 | 63 | 1 | 0.0 | 0.9 | 0.00 | 1.33 | 1.33 | 99 | 1014.2 |
| 20260507022857 | 63 | 1 | 0.0 | 0.0 | 0.00 | 1.33 | 1.33 | 99 | 1014.1 |
| 20260507022354 | 63 | 1 | 0.0 | 0.0 | 0.00 | 1.33 | 1.33 | 99 | 1014.7 |
| 20260507021850 | 63 | 1 | 0.0 | 0.0 | 0.00 | 1.33 | 1.33 | 99 | 1014.3 |
| 20260507021345 | 63 | 1 | 0.0 | 0.0 | 0.00 | 1.33 | 1.33 | 99 | 1014.0 |
| 20260507020843 | 63 | 1 | 0.0 | 0.0 | 0.00 | 1.33 | 1.33 | 99 | 1014.1 |
| 20260507020339 | 63 | 1 | 0.0 | 0.0 | 0.00 | 1.33 | 1.33 | 99 | 1014.0 |
| 20260507015837 | 63 | 1 | 0.0 | 0.0 | 0.00 | 1.33 | 1.33 | 99 | 1014.5 |
| 20260507015335 | 63 | 1 | 0.0 | 2.6 | 0.07 | 1.33 | 1.33 | 99 | 1014.2 |
| 20260507014831 | 63 | 2 | 0.9 | 2.6 | 0.07 | 1.33 | 1.33 | 99 | 1013.9 |
| 20260507014328 | 63 | 34 | 0.9 | 1.7 | 0.12 | 1.32 | 1.32 | 99 | 1013.9 |
| 20260507013824 | 63 | 19 | 1.7 | 2.6 | 0.12 | 1.32 | 1.32 | 99 | 1013.9 |